{"data":{"norad_id":64590,"epoch":"2026-05-24T19:36:56.257920Z","epoch_age_seconds":93979,"freshness":"FRESH","line1":"1 64590U 25135BQ  26144.81731780  .00001341  00000+0  13119-3 0  9998","line2":"2 64590  97.7694 259.5194 0006560  59.4295 300.7572 14.93976554 50411","mean_motion":14.93976554,"eccentricity":0.000656,"inclination_deg":97.7694,"raan_deg":259.5194,"arg_perigee_deg":59.4295,"mean_anomaly_deg":300.7572,"bstar":0.00013119,"rev_number":5041,"period_min":96.387054813177,"perigee_km":580.98306536319,"apogee_km":590.11942434043,"semimajor_km":6963.6882448518,"source":"CELESTRAK","updated_at":"2026-05-25T13:38:04.656282Z"}}